owner,sensor,date,latitude,longitude,relative_humidity,qcFlag 
COMPS,ioos:station:USF.COMPS:FHP:1,2014-05-28T15:00:00Z,28.1530,-82.8010,71.17,1111122 
COMPS,ioos:station:USF.COMPS:FHP:1,2014-05-28T15:06:00Z,28.1530,-82.8010,71.4,1111122 
COMPS,ioos:station:USF.COMPS:FHP:1,2014-05-28T15:12:00Z,28.1530,-82.8010,70.71,1111122 
COMPS,ioos:station:USF.COMPS:FHP:1,2014-05-28T15:18:00Z,28.1530,-82.8010,70.04,1111122 
COMPS,ioos:station:USF.COMPS:FHP:1,2014-05-28T15:24:00Z,28.1530,-82.8010,70.02,1111122 
COMPS,ioos:station:USF.COMPS:FHP:1,2014-05-28T15:30:00Z,28.1530,-82.8010,68.03,1111122 
COMPS,ioos:station:USF.COMPS:FHP:1,2014-05-28T15:36:00Z,28.1530,-82.8010,67.04,1111122 
COMPS,ioos:station:USF.COMPS:FHP:1,2014-05-28T15:42:00Z,28.1530,-82.8010,66.76,1111122 
COMPS,ioos:station:USF.COMPS:FHP:1,2014-05-28T15:48:00Z,28.1530,-82.8010,65.65,1111122 
COMPS,ioos:station:USF.COMPS:FHP:1,2014-05-28T15:54:00Z,28.1530,-82.8010,65.26,1111122 
COMPS,ioos:station:USF.COMPS:FHP:1,2014-05-28T16:00:00Z,28.1530,-82.8010,65.24,1111122 
COMPS,ioos:station:USF.COMPS:FHP:1,2014-05-28T16:06:00Z,28.1530,-82.8010,64.99,1111122 
COMPS,ioos:station:USF.COMPS:FHP:1,2014-05-28T16:12:00Z,28.1530,-82.8010,65.54,1111122 
COMPS,ioos:station:USF.COMPS:FHP:1,2014-05-28T16:18:00Z,28.1530,-82.8010,63.84,1111122 
COMPS,ioos:station:USF.COMPS:FHP:1,2014-05-28T16:24:00Z,28.1530,-82.8010,64.63,1111122 
COMPS,ioos:station:USF.COMPS:FHP:1,2014-05-28T16:30:00Z,28.1530,-82.8010,62.02,1111122 
COMPS,ioos:station:USF.COMPS:FHP:1,2014-05-28T16:36:00Z,28.1530,-82.8010,60.86,1111122 
COMPS,ioos:station:USF.COMPS:FHP:1,2014-05-28T16:42:00Z,28.1530,-82.8010,60.25,1111122 
COMPS,ioos:station:USF.COMPS:FHP:1,2014-05-28T16:48:00Z,28.1530,-82.8010,58.05,1111122 
COMPS,ioos:station:USF.COMPS:FHP:1,2014-05-28T16:54:00Z,28.1530,-82.8010,57.06,1111122 
COMPS,ioos:station:USF.COMPS:FHP:1,2014-05-28T17:00:00Z,28.1530,-82.8010,55.23,1111122 
COMPS,ioos:station:USF.COMPS:FHP:1,2014-05-28T17:06:00Z,28.1530,-82.8010,60.55,1111122 
COMPS,ioos:station:USF.COMPS:FHP:1,2014-05-28T17:12:00Z,28.1530,-82.8010,71.1,1111122 
COMPS,ioos:station:USF.COMPS:FHP:1,2014-05-28T17:18:00Z,28.1530,-82.8010,71.3,1111122 
COMPS,ioos:station:USF.COMPS:FHP:1,2014-05-28T17:24:00Z,28.1530,-82.8010,70.84,1111122 
COMPS,ioos:station:USF.COMPS:FHP:1,2014-05-28T17:30:00Z,28.1530,-82.8010,71.39,1111122 
COMPS,ioos:station:USF.COMPS:FHP:1,2014-05-28T17:36:00Z,28.1530,-82.8010,71.37,1111122 
COMPS,ioos:station:USF.COMPS:FHP:1,2014-05-28T17:42:00Z,28.1530,-82.8010,70.14,1111122 
COMPS,ioos:station:USF.COMPS:FHP:1,2014-05-28T17:48:00Z,28.1530,-82.8010,69.8,1111122 
COMPS,ioos:station:USF.COMPS:FHP:1,2014-05-28T17:54:00Z,28.1530,-82.8010,69.52,1111122 
COMPS,ioos:station:USF.COMPS:FHP:1,2014-05-28T18:00:00Z,28.1530,-82.8010,68.52,1111122 
COMPS,ioos:station:USF.COMPS:FHP:1,2014-05-28T18:06:00Z,28.1530,-82.8010,70.61,1111122 
COMPS,ioos:station:USF.COMPS:FHP:1,2014-05-28T18:12:00Z,28.1530,-82.8010,69.9,1111122 
COMPS,ioos:station:USF.COMPS:FHP:1,2014-05-28T18:18:00Z,28.1530,-82.8010,71.64,1111122 
COMPS,ioos:station:USF.COMPS:FHP:1,2014-05-28T18:24:00Z,28.1530,-82.8010,69.73,1111122 
COMPS,ioos:station:USF.COMPS:FHP:1,2014-05-28T18:30:00Z,28.1530,-82.8010,69.92,1111122 
COMPS,ioos:station:USF.COMPS:FHP:1,2014-05-28T18:36:00Z,28.1530,-82.8010,70.96,1111122 
COMPS,ioos:station:USF.COMPS:FHP:1,2014-05-28T18:42:00Z,28.1530,-82.8010,70.96,1111122 
COMPS,ioos:station:USF.COMPS:FHP:1,2014-05-28T18:48:00Z,28.1530,-82.8010,71.89,1111122 
COMPS,ioos:station:USF.COMPS:FHP:1,2014-05-28T18:54:00Z,28.1530,-82.8010,73.52,1111122 
COMPS,ioos:station:USF.COMPS:FHP:1,2014-05-28T19:00:00Z,28.1530,-82.8010,73.68,1111122 
COMPS,ioos:station:USF.COMPS:FHP:1,2014-05-28T19:06:00Z,28.1530,-82.8010,74.21,1111122 
COMPS,ioos:station:USF.COMPS:FHP:1,2014-05-28T19:12:00Z,28.1530,-82.8010,74.11,1111122 
COMPS,ioos:station:USF.COMPS:FHP:1,2014-05-28T19:18:00Z,28.1530,-82.8010,73.12,1111122 
COMPS,ioos:station:USF.COMPS:FHP:1,2014-05-28T19:24:00Z,28.1530,-82.8010,75.07,1111122 
COMPS,ioos:station:USF.COMPS:FHP:1,2014-05-28T19:30:00Z,28.1530,-82.8010,73.81,1111122 
COMPS,ioos:station:USF.COMPS:FHP:1,2014-05-28T19:36:00Z,28.1530,-82.8010,73.22,1111122 
COMPS,ioos:station:USF.COMPS:FHP:1,2014-05-28T19:42:00Z,28.1530,-82.8010,73.75,1111122 
COMPS,ioos:station:USF.COMPS:FHP:1,2014-05-28T19:48:00Z,28.1530,-82.8010,72.09,1111122 
COMPS,ioos:station:USF.COMPS:FHP:1,2014-05-28T19:54:00Z,28.1530,-82.8010,71.86,1111122 
COMPS,ioos:station:USF.COMPS:FHP:1,2014-05-28T20:00:00Z,28.1530,-82.8010,71.04,1111122 
COMPS,ioos:station:USF.COMPS:FHP:1,2014-05-28T20:06:00Z,28.1530,-82.8010,70.56,1111122 
COMPS,ioos:station:USF.COMPS:FHP:1,2014-05-28T20:12:00Z,28.1530,-82.8010,68.73,1111122 
COMPS,ioos:station:USF.COMPS:FHP:1,2014-05-28T20:18:00Z,28.1530,-82.8010,67.39,1111122 
COMPS,ioos:station:USF.COMPS:FHP:1,2014-05-28T20:24:00Z,28.1530,-82.8010,66.75,1111122 
COMPS,ioos:station:USF.COMPS:FHP:1,2014-05-28T20:30:00Z,28.1530,-82.8010,67.06,1111122 
COMPS,ioos:station:USF.COMPS:FHP:1,2014-05-28T20:36:00Z,28.1530,-82.8010,66.17,1111122 
COMPS,ioos:station:USF.COMPS:FHP:1,2014-05-28T20:42:00Z,28.1530,-82.8010,64.31,1111122 
COMPS,ioos:station:USF.COMPS:FHP:1,2014-05-28T20:48:00Z,28.1530,-82.8010,63.78,1111122 
COMPS,ioos:station:USF.COMPS:FHP:1,2014-05-28T20:54:00Z,28.1530,-82.8010,63.42,1111122 
COMPS,ioos:station:USF.COMPS:FHP:1,2014-05-28T21:00:00Z,28.1530,-82.8010,63.63,1111122 
COMPS,ioos:station:USF.COMPS:FHP:1,2014-05-28T21:06:00Z,28.1530,-82.8010,62.56,1111122 
COMPS,ioos:station:USF.COMPS:FHP:1,2014-05-28T21:12:00Z,28.1530,-82.8010,61.12,1111122 
COMPS,ioos:station:USF.COMPS:FHP:1,2014-05-28T21:18:00Z,28.1530,-82.8010,58.85,1111122 
COMPS,ioos:station:USF.COMPS:FHP:1,2014-05-28T21:24:00Z,28.1530,-82.8010,57.28,1111122 
COMPS,ioos:station:USF.COMPS:FHP:1,2014-05-28T21:30:00Z,28.1530,-82.8010,56.65,1111122 
COMPS,ioos:station:USF.COMPS:FHP:1,2014-05-28T21:36:00Z,28.1530,-82.8010,54.38,1111122 
COMPS,ioos:station:USF.COMPS:FHP:1,2014-05-28T21:42:00Z,28.1530,-82.8010,53.8,1111122 
COMPS,ioos:station:USF.COMPS:FHP:1,2014-05-28T21:48:00Z,28.1530,-82.8010,53.28,1111122 
COMPS,ioos:station:USF.COMPS:FHP:1,2014-05-28T21:54:00Z,28.1530,-82.8010,53.62,1111122 
COMPS,ioos:station:USF.COMPS:FHP:1,2014-05-28T22:00:00Z,28.1530,-82.8010,52.78,1111122 
COMPS,ioos:station:USF.COMPS:FHP:1,2014-05-28T22:06:00Z,28.1530,-82.8010,53.31,1111122 
COMPS,ioos:station:USF.COMPS:FHP:1,2014-05-28T22:12:00Z,28.1530,-82.8010,55.56,1111122 
COMPS,ioos:station:USF.COMPS:FHP:1,2014-05-28T22:18:00Z,28.1530,-82.8010,57.9,1111122 
COMPS,ioos:station:USF.COMPS:FHP:1,2014-05-28T22:24:00Z,28.1530,-82.8010,56.33,1111122 
COMPS,ioos:station:USF.COMPS:FHP:1,2014-05-28T22:30:00Z,28.1530,-82.8010,57.41,1111122 
COMPS,ioos:station:USF.COMPS:FHP:1,2014-05-28T22:36:00Z,28.1530,-82.8010,59.22,1111122 
COMPS,ioos:station:USF.COMPS:FHP:1,2014-05-28T22:42:00Z,28.1530,-82.8010,58.32,1111122 
COMPS,ioos:station:USF.COMPS:FHP:1,2014-05-28T22:48:00Z,28.1530,-82.8010,61.02,1111122 
COMPS,ioos:station:USF.COMPS:FHP:1,2014-05-28T22:54:00Z,28.1530,-82.8010,62.58,1111122 
COMPS,ioos:station:USF.COMPS:FHP:1,2014-05-28T23:00:00Z,28.1530,-82.8010,61.03,1111122 
COMPS,ioos:station:USF.COMPS:FHP:1,2014-05-28T23:06:00Z,28.1530,-82.8010,60.7,1111122 
COMPS,ioos:station:USF.COMPS:FHP:1,2014-05-28T23:12:00Z,28.1530,-82.8010,60.84,1111122 
COMPS,ioos:station:USF.COMPS:FHP:1,2014-05-28T23:18:00Z,28.1530,-82.8010,60.81,1111122 
COMPS,ioos:station:USF.COMPS:FHP:1,2014-05-28T23:24:00Z,28.1530,-82.8010,60.43,1111122 
COMPS,ioos:station:USF.COMPS:FHP:1,2014-05-28T23:30:00Z,28.1530,-82.8010,61.36,1111122 
COMPS,ioos:station:USF.COMPS:FHP:1,2014-05-28T23:36:00Z,28.1530,-82.8010,60.32,1111122 
COMPS,ioos:station:USF.COMPS:FHP:1,2014-05-28T23:42:00Z,28.1530,-82.8010,63.94,1111122 
COMPS,ioos:station:USF.COMPS:FHP:1,2014-05-28T23:48:00Z,28.1530,-82.8010,61.94,1111122 
COMPS,ioos:station:USF.COMPS:FHP:1,2014-05-28T23:54:00Z,28.1530,-82.8010,58.99,1111122 
COMPS,ioos:station:USF.COMPS:FHP:1,2014-05-29T00:00:00Z,28.1530,-82.8010,60.51,1111122 
COMPS,ioos:station:USF.COMPS:FHP:1,2014-05-29T00:06:00Z,28.1530,-82.8010,60.08,1111122 
COMPS,ioos:station:USF.COMPS:FHP:1,2014-05-29T00:12:00Z,28.1530,-82.8010,59.34,1111122 
COMPS,ioos:station:USF.COMPS:FHP:1,2014-05-29T00:18:00Z,28.1530,-82.8010,59.42,1111122 
COMPS,ioos:station:USF.COMPS:FHP:1,2014-05-29T00:24:00Z,28.1530,-82.8010,59.41,1111122 
COMPS,ioos:station:USF.COMPS:FHP:1,2014-05-29T00:30:00Z,28.1530,-82.8010,60.41,1111122 
COMPS,ioos:station:USF.COMPS:FHP:1,2014-05-29T00:36:00Z,28.1530,-82.8010,60.61,1111122 
COMPS,ioos:station:USF.COMPS:FHP:1,2014-05-29T00:42:00Z,28.1530,-82.8010,61.55,1111122 
COMPS,ioos:station:USF.COMPS:FHP:1,2014-05-29T00:48:00Z,28.1530,-82.8010,63.15,1111122 
COMPS,ioos:station:USF.COMPS:FHP:1,2014-05-29T00:54:00Z,28.1530,-82.8010,65.5,1111122 
COMPS,ioos:station:USF.COMPS:FHP:1,2014-05-29T01:00:00Z,28.1530,-82.8010,65.42,1111122 
COMPS,ioos:station:USF.COMPS:FHP:1,2014-05-29T01:06:00Z,28.1530,-82.8010,64.9,1111122 
COMPS,ioos:station:USF.COMPS:FHP:1,2014-05-29T01:12:00Z,28.1530,-82.8010,65.23,1111122 
COMPS,ioos:station:USF.COMPS:FHP:1,2014-05-29T01:18:00Z,28.1530,-82.8010,66.43,1111122 
COMPS,ioos:station:USF.COMPS:FHP:1,2014-05-29T01:24:00Z,28.1530,-82.8010,64.15,1111122 
COMPS,ioos:station:USF.COMPS:FHP:1,2014-05-29T01:30:00Z,28.1530,-82.8010,66.92,1111122 
COMPS,ioos:station:USF.COMPS:FHP:1,2014-05-29T01:36:00Z,28.1530,-82.8010,67.74,1111122 
COMPS,ioos:station:USF.COMPS:FHP:1,2014-05-29T01:42:00Z,28.1530,-82.8010,68.88,1111122 
COMPS,ioos:station:USF.COMPS:FHP:1,2014-05-29T01:48:00Z,28.1530,-82.8010,68.22,1111122 
COMPS,ioos:station:USF.COMPS:FHP:1,2014-05-29T01:54:00Z,28.1530,-82.8010,68.66,1111122 
COMPS,ioos:station:USF.COMPS:FHP:1,2014-05-29T02:00:00Z,28.1530,-82.8010,68.75,1111122 
COMPS,ioos:station:USF.COMPS:FHP:1,2014-05-29T02:06:00Z,28.1530,-82.8010,68.93,1111122 
COMPS,ioos:station:USF.COMPS:FHP:1,2014-05-29T02:12:00Z,28.1530,-82.8010,69.53,1111122 
COMPS,ioos:station:USF.COMPS:FHP:1,2014-05-29T02:18:00Z,28.1530,-82.8010,70.05,1111122 
COMPS,ioos:station:USF.COMPS:FHP:1,2014-05-29T02:24:00Z,28.1530,-82.8010,70.17,1111122 
COMPS,ioos:station:USF.COMPS:FHP:1,2014-05-29T02:30:00Z,28.1530,-82.8010,70.56,1111122 
COMPS,ioos:station:USF.COMPS:FHP:1,2014-05-29T02:36:00Z,28.1530,-82.8010,70.63,1111122 
COMPS,ioos:station:USF.COMPS:FHP:1,2014-05-29T02:42:00Z,28.1530,-82.8010,71.29,1111122 
COMPS,ioos:station:USF.COMPS:FHP:1,2014-05-29T02:48:00Z,28.1530,-82.8010,72.25,1111122 
COMPS,ioos:station:USF.COMPS:FHP:1,2014-05-29T02:54:00Z,28.1530,-82.8010,71.96,1111122 
COMPS,ioos:station:USF.COMPS:FHP:1,2014-05-29T03:00:00Z,28.1530,-82.8010,71.61,1111122 
COMPS,ioos:station:USF.COMPS:FHP:1,2014-05-29T03:06:00Z,28.1530,-82.8010,71.2,1111122 
COMPS,ioos:station:USF.COMPS:FHP:1,2014-05-29T03:12:00Z,28.1530,-82.8010,71.76,1111122 
COMPS,ioos:station:USF.COMPS:FHP:1,2014-05-29T03:18:00Z,28.1530,-82.8010,72.52,1111122 
COMPS,ioos:station:USF.COMPS:FHP:1,2014-05-29T03:24:00Z,28.1530,-82.8010,73.09,1111122 
COMPS,ioos:station:USF.COMPS:FHP:1,2014-05-29T03:30:00Z,28.1530,-82.8010,72.06,1111122 
COMPS,ioos:station:USF.COMPS:FHP:1,2014-05-29T03:36:00Z,28.1530,-82.8010,73.6,1111122 
COMPS,ioos:station:USF.COMPS:FHP:1,2014-05-29T03:42:00Z,28.1530,-82.8010,77.18,1111122 
COMPS,ioos:station:USF.COMPS:FHP:1,2014-05-29T03:48:00Z,28.1530,-82.8010,78.3,1111122 
COMPS,ioos:station:USF.COMPS:FHP:1,2014-05-29T03:54:00Z,28.1530,-82.8010,79.55,1111122 
COMPS,ioos:station:USF.COMPS:FHP:1,2014-05-29T04:00:00Z,28.1530,-82.8010,79.48,1111122 
COMPS,ioos:station:USF.COMPS:FHP:1,2014-05-29T04:06:00Z,28.1530,-82.8010,79.5,1111122 
COMPS,ioos:station:USF.COMPS:FHP:1,2014-05-29T04:12:00Z,28.1530,-82.8010,80.24,1111122 
COMPS,ioos:station:USF.COMPS:FHP:1,2014-05-29T04:18:00Z,28.1530,-82.8010,78.4,1111122 
COMPS,ioos:station:USF.COMPS:FHP:1,2014-05-29T04:24:00Z,28.1530,-82.8010,78.69,1111122 
COMPS,ioos:station:USF.COMPS:FHP:1,2014-05-29T04:30:00Z,28.1530,-82.8010,78.55,1111122 
COMPS,ioos:station:USF.COMPS:FHP:1,2014-05-29T04:36:00Z,28.1530,-82.8010,78.37,1111122 
COMPS,ioos:station:USF.COMPS:FHP:1,2014-05-29T04:42:00Z,28.1530,-82.8010,78.35,1111122 
COMPS,ioos:station:USF.COMPS:FHP:1,2014-05-29T04:48:00Z,28.1530,-82.8010,79.27,1111122 
COMPS,ioos:station:USF.COMPS:FHP:1,2014-05-29T04:54:00Z,28.1530,-82.8010,79.75,1111122 
COMPS,ioos:station:USF.COMPS:FHP:1,2014-05-29T05:00:00Z,28.1530,-82.8010,79.39,1111122 
COMPS,ioos:station:USF.COMPS:FHP:1,2014-05-29T05:06:00Z,28.1530,-82.8010,79.39,1111122 
COMPS,ioos:station:USF.COMPS:FHP:1,2014-05-29T05:12:00Z,28.1530,-82.8010,79.31,1111122 
COMPS,ioos:station:USF.COMPS:FHP:1,2014-05-29T05:18:00Z,28.1530,-82.8010,79.71,1111122 
COMPS,ioos:station:USF.COMPS:FHP:1,2014-05-29T05:24:00Z,28.1530,-82.8010,79.68,1111122 
COMPS,ioos:station:USF.COMPS:FHP:1,2014-05-29T05:30:00Z,28.1530,-82.8010,81.08,1111122 
COMPS,ioos:station:USF.COMPS:FHP:1,2014-05-29T05:36:00Z,28.1530,-82.8010,82.74,1111122 
COMPS,ioos:station:USF.COMPS:FHP:1,2014-05-29T05:42:00Z,28.1530,-82.8010,83.94,1111122 
COMPS,ioos:station:USF.COMPS:FHP:1,2014-05-29T05:48:00Z,28.1530,-82.8010,84.34,1111122 
COMPS,ioos:station:USF.COMPS:FHP:1,2014-05-29T05:54:00Z,28.1530,-82.8010,85.17,1111122 
COMPS,ioos:station:USF.COMPS:FHP:1,2014-05-29T06:00:00Z,28.1530,-82.8010,86.03,1111122 
COMPS,ioos:station:USF.COMPS:FHP:1,2014-05-29T06:06:00Z,28.1530,-82.8010,86.7,1111122 
COMPS,ioos:station:USF.COMPS:FHP:1,2014-05-29T06:12:00Z,28.1530,-82.8010,86.48,1111122 
COMPS,ioos:station:USF.COMPS:FHP:1,2014-05-29T06:18:00Z,28.1530,-82.8010,85.82,1111122 
COMPS,ioos:station:USF.COMPS:FHP:1,2014-05-29T06:24:00Z,28.1530,-82.8010,85.53,1111122 
COMPS,ioos:station:USF.COMPS:FHP:1,2014-05-29T06:30:00Z,28.1530,-82.8010,85.02,1111122 
COMPS,ioos:station:USF.COMPS:FHP:1,2014-05-29T06:36:00Z,28.1530,-82.8010,85.28,1111122 
COMPS,ioos:station:USF.COMPS:FHP:1,2014-05-29T06:42:00Z,28.1530,-82.8010,86.13,1111122 
COMPS,ioos:station:USF.COMPS:FHP:1,2014-05-29T06:48:00Z,28.1530,-82.8010,87.17,1111122 
COMPS,ioos:station:USF.COMPS:FHP:1,2014-05-29T06:54:00Z,28.1530,-82.8010,87.12,1111122 
COMPS,ioos:station:USF.COMPS:FHP:1,2014-05-29T07:00:00Z,28.1530,-82.8010,86.94,1111122 
COMPS,ioos:station:USF.COMPS:FHP:1,2014-05-29T07:06:00Z,28.1530,-82.8010,86.82,1111122 
COMPS,ioos:station:USF.COMPS:FHP:1,2014-05-29T07:12:00Z,28.1530,-82.8010,85.64,1111122 
COMPS,ioos:station:USF.COMPS:FHP:1,2014-05-29T07:18:00Z,28.1530,-82.8010,84.61,1111122 
COMPS,ioos:station:USF.COMPS:FHP:1,2014-05-29T07:24:00Z,28.1530,-82.8010,83.45,1111122 
COMPS,ioos:station:USF.COMPS:FHP:1,2014-05-29T07:30:00Z,28.1530,-82.8010,82.51,1111122 
COMPS,ioos:station:USF.COMPS:FHP:1,2014-05-29T07:36:00Z,28.1530,-82.8010,81.71,1111122 
COMPS,ioos:station:USF.COMPS:FHP:1,2014-05-29T07:42:00Z,28.1530,-82.8010,81.32,1111122 
COMPS,ioos:station:USF.COMPS:FHP:1,2014-05-29T07:48:00Z,28.1530,-82.8010,81.36,1111122 
COMPS,ioos:station:USF.COMPS:FHP:1,2014-05-29T07:54:00Z,28.1530,-82.8010,81.57,1111122 
COMPS,ioos:station:USF.COMPS:FHP:1,2014-05-29T08:00:00Z,28.1530,-82.8010,82.02,1111122 
COMPS,ioos:station:USF.COMPS:FHP:1,2014-05-29T08:06:00Z,28.1530,-82.8010,82.24,1111122 
COMPS,ioos:station:USF.COMPS:FHP:1,2014-05-29T08:12:00Z,28.1530,-82.8010,82.67,1111122 
COMPS,ioos:station:USF.COMPS:FHP:1,2014-05-29T08:18:00Z,28.1530,-82.8010,82.93,1111122 
COMPS,ioos:station:USF.COMPS:FHP:1,2014-05-29T08:24:00Z,28.1530,-82.8010,82.98,1111122 
COMPS,ioos:station:USF.COMPS:FHP:1,2014-05-29T08:30:00Z,28.1530,-82.8010,83.41,1111122 
COMPS,ioos:station:USF.COMPS:FHP:1,2014-05-29T08:36:00Z,28.1530,-82.8010,84.03,1111122 
COMPS,ioos:station:USF.COMPS:FHP:1,2014-05-29T08:42:00Z,28.1530,-82.8010,84.31,1111122 
COMPS,ioos:station:USF.COMPS:FHP:1,2014-05-29T08:48:00Z,28.1530,-82.8010,84.03,1111122 
COMPS,ioos:station:USF.COMPS:FHP:1,2014-05-29T08:54:00Z,28.1530,-82.8010,84.19,1111122 
COMPS,ioos:station:USF.COMPS:FHP:1,2014-05-29T09:00:00Z,28.1530,-82.8010,84.05,1111122 
COMPS,ioos:station:USF.COMPS:FHP:1,2014-05-29T09:06:00Z,28.1530,-82.8010,83.55,1111122 
COMPS,ioos:station:USF.COMPS:FHP:1,2014-05-29T09:12:00Z,28.1530,-82.8010,83.18,1111122 
COMPS,ioos:station:USF.COMPS:FHP:1,2014-05-29T09:18:00Z,28.1530,-82.8010,82.46,1111122 
COMPS,ioos:station:USF.COMPS:FHP:1,2014-05-29T09:24:00Z,28.1530,-82.8010,82.38,1111122 
COMPS,ioos:station:USF.COMPS:FHP:1,2014-05-29T09:30:00Z,28.1530,-82.8010,82.22,1111122 
COMPS,ioos:station:USF.COMPS:FHP:1,2014-05-29T09:36:00Z,28.1530,-82.8010,82.52,1111122 
COMPS,ioos:station:USF.COMPS:FHP:1,2014-05-29T09:42:00Z,28.1530,-82.8010,83.14,1111122 
COMPS,ioos:station:USF.COMPS:FHP:1,2014-05-29T09:48:00Z,28.1530,-82.8010,83.81,1111122 
COMPS,ioos:station:USF.COMPS:FHP:1,2014-05-29T09:54:00Z,28.1530,-82.8010,84.0,1111122 
COMPS,ioos:station:USF.COMPS:FHP:1,2014-05-29T10:00:00Z,28.1530,-82.8010,84.51,1111122 
COMPS,ioos:station:USF.COMPS:FHP:1,2014-05-29T10:06:00Z,28.1530,-82.8010,84.89,1111122 
COMPS,ioos:station:USF.COMPS:FHP:1,2014-05-29T10:12:00Z,28.1530,-82.8010,85.37,1111122 
COMPS,ioos:station:USF.COMPS:FHP:1,2014-05-29T10:18:00Z,28.1530,-82.8010,86.18,1111122 
COMPS,ioos:station:USF.COMPS:FHP:1,2014-05-29T10:24:00Z,28.1530,-82.8010,86.12,1111122 
COMPS,ioos:station:USF.COMPS:FHP:1,2014-05-29T10:30:00Z,28.1530,-82.8010,86.67,1111122 
COMPS,ioos:station:USF.COMPS:FHP:1,2014-05-29T10:36:00Z,28.1530,-82.8010,87.31,1111122 
COMPS,ioos:station:USF.COMPS:FHP:1,2014-05-29T10:42:00Z,28.1530,-82.8010,87.33,1111122 
COMPS,ioos:station:USF.COMPS:FHP:1,2014-05-29T10:48:00Z,28.1530,-82.8010,86.83,1111122 
COMPS,ioos:station:USF.COMPS:FHP:1,2014-05-29T10:54:00Z,28.1530,-82.8010,86.45,1111122 
COMPS,ioos:station:USF.COMPS:FHP:1,2014-05-29T11:00:00Z,28.1530,-82.8010,85.88,1111122 
COMPS,ioos:station:USF.COMPS:FHP:1,2014-05-29T11:06:00Z,28.1530,-82.8010,85.32,1111122 
COMPS,ioos:station:USF.COMPS:FHP:1,2014-05-29T11:12:00Z,28.1530,-82.8010,85.13,1111122 
COMPS,ioos:station:USF.COMPS:FHP:1,2014-05-29T11:18:00Z,28.1530,-82.8010,84.94,1111122 
COMPS,ioos:station:USF.COMPS:FHP:1,2014-05-29T11:24:00Z,28.1530,-82.8010,84.42,1111122 
COMPS,ioos:station:USF.COMPS:FHP:1,2014-05-29T11:30:00Z,28.1530,-82.8010,84.06,1111122 
COMPS,ioos:station:USF.COMPS:FHP:1,2014-05-29T11:36:00Z,28.1530,-82.8010,84.27,1111122 
COMPS,ioos:station:USF.COMPS:FHP:1,2014-05-29T11:42:00Z,28.1530,-82.8010,84.23,1111122 
COMPS,ioos:station:USF.COMPS:FHP:1,2014-05-29T11:48:00Z,28.1530,-82.8010,83.52,1111122 
COMPS,ioos:station:USF.COMPS:FHP:1,2014-05-29T11:54:00Z,28.1530,-82.8010,83.1,1111122 
COMPS,ioos:station:USF.COMPS:FHP:1,2014-05-29T12:00:00Z,28.1530,-82.8010,82.89,1111122 
COMPS,ioos:station:USF.COMPS:FHP:1,2014-05-29T12:06:00Z,28.1530,-82.8010,82.71,1111122 
COMPS,ioos:station:USF.COMPS:FHP:1,2014-05-29T12:12:00Z,28.1530,-82.8010,82.48,1111122 
COMPS,ioos:station:USF.COMPS:FHP:1,2014-05-29T12:18:00Z,28.1530,-82.8010,82.56,1111122 
COMPS,ioos:station:USF.COMPS:FHP:1,2014-05-29T12:24:00Z,28.1530,-82.8010,81.87,1111122 
COMPS,ioos:station:USF.COMPS:FHP:1,2014-05-29T12:30:00Z,28.1530,-82.8010,80.75,1111122 
COMPS,ioos:station:USF.COMPS:FHP:1,2014-05-29T12:36:00Z,28.1530,-82.8010,79.74,1111122 
COMPS,ioos:station:USF.COMPS:FHP:1,2014-05-29T12:42:00Z,28.1530,-82.8010,79.51,1111122 
COMPS,ioos:station:USF.COMPS:FHP:1,2014-05-29T12:48:00Z,28.1530,-82.8010,78.15,1111122 
COMPS,ioos:station:USF.COMPS:FHP:1,2014-05-29T12:54:00Z,28.1530,-82.8010,77.8,1111122 
COMPS,ioos:station:USF.COMPS:FHP:1,2014-05-29T13:00:00Z,28.1530,-82.8010,78.12,1111122 
COMPS,ioos:station:USF.COMPS:FHP:1,2014-05-29T13:06:00Z,28.1530,-82.8010,77.76,1111122 
COMPS,ioos:station:USF.COMPS:FHP:1,2014-05-29T13:12:00Z,28.1530,-82.8010,77.47,1111122 
COMPS,ioos:station:USF.COMPS:FHP:1,2014-05-29T13:18:00Z,28.1530,-82.8010,76.57,1111122 
COMPS,ioos:station:USF.COMPS:FHP:1,2014-05-29T13:24:00Z,28.1530,-82.8010,76.49,1111122 
COMPS,ioos:station:USF.COMPS:FHP:1,2014-05-29T13:30:00Z,28.1530,-82.8010,76.18,1111122 
COMPS,ioos:station:USF.COMPS:FHP:1,2014-05-29T13:36:00Z,28.1530,-82.8010,75.5,1111122 
COMPS,ioos:station:USF.COMPS:FHP:1,2014-05-29T13:42:00Z,28.1530,-82.8010,75.65,1111122 
COMPS,ioos:station:USF.COMPS:FHP:1,2014-05-29T13:48:00Z,28.1530,-82.8010,75.57,1111122 
COMPS,ioos:station:USF.COMPS:FHP:1,2014-05-29T13:54:00Z,28.1530,-82.8010,74.62,1111122 
COMPS,ioos:station:USF.COMPS:FHP:1,2014-05-29T14:00:00Z,28.1530,-82.8010,73.65,1111122 
COMPS,ioos:station:USF.COMPS:FHP:1,2014-05-29T14:06:00Z,28.1530,-82.8010,74.59,1111122 
COMPS,ioos:station:USF.COMPS:FHP:1,2014-05-29T14:12:00Z,28.1530,-82.8010,74.66,1111122 
COMPS,ioos:station:USF.COMPS:FHP:1,2014-05-29T14:18:00Z,28.1530,-82.8010,74.0,1111122 
COMPS,ioos:station:USF.COMPS:FHP:1,2014-05-29T14:24:00Z,28.1530,-82.8010,74.1,1111122 
COMPS,ioos:station:USF.COMPS:FHP:1,2014-05-29T14:30:00Z,28.1530,-82.8010,73.19,1111122 
COMPS,ioos:station:USF.COMPS:FHP:1,2014-05-29T14:36:00Z,28.1530,-82.8010,74.06,1111122 
COMPS,ioos:station:USF.COMPS:FHP:1,2014-05-29T14:42:00Z,28.1530,-82.8010,73.99,1111122 
COMPS,ioos:station:USF.COMPS:FHP:1,2014-05-29T14:48:00Z,28.1530,-82.8010,73.25,1111122 
COMPS,ioos:station:USF.COMPS:FHP:1,2014-05-29T14:54:00Z,28.1530,-82.8010,72.9,1111122 
COMPS,ioos:station:USF.COMPS:FHP:1,2014-05-29T15:00:00Z,28.1530,-82.8010,73.15,1111122 
COMPS,ioos:station:USF.COMPS:FHP:1,2014-05-29T15:06:00Z,28.1530,-82.8010,72.43,1111122 
COMPS,ioos:station:USF.COMPS:FHP:1,2014-05-29T15:12:00Z,28.1530,-82.8010,70.11,1111122 
COMPS,ioos:station:USF.COMPS:FHP:1,2014-05-29T15:18:00Z,28.1530,-82.8010,69.96,1111122 
COMPS,ioos:station:USF.COMPS:FHP:1,2014-05-29T15:24:00Z,28.1530,-82.8010,68.97,1111122 
COMPS,ioos:station:USF.COMPS:FHP:1,2014-05-29T15:30:00Z,28.1530,-82.8010,68.62,1111122 
COMPS,ioos:station:USF.COMPS:FHP:1,2014-05-29T15:36:00Z,28.1530,-82.8010,70.33,1111122 
COMPS,ioos:station:USF.COMPS:FHP:1,2014-05-29T15:42:00Z,28.1530,-82.8010,69.67,1111122 
COMPS,ioos:station:USF.COMPS:FHP:1,2014-05-29T15:48:00Z,28.1530,-82.8010,69.03,1111122 
COMPS,ioos:station:USF.COMPS:FHP:1,2014-05-29T15:54:00Z,28.1530,-82.8010,66.44,1111122 
COMPS,ioos:station:USF.COMPS:FHP:1,2014-05-29T16:00:00Z,28.1530,-82.8010,62.82,1111122 
COMPS,ioos:station:USF.COMPS:FHP:1,2014-05-29T16:06:00Z,28.1530,-82.8010,63.75,1111122 
COMPS,ioos:station:USF.COMPS:FHP:1,2014-05-29T16:12:00Z,28.1530,-82.8010,63.05,1111122 
COMPS,ioos:station:USF.COMPS:FHP:1,2014-05-29T16:18:00Z,28.1530,-82.8010,60.74,1111122 
COMPS,ioos:station:USF.COMPS:FHP:1,2014-05-29T16:24:00Z,28.1530,-82.8010,61.95,1111122 
COMPS,ioos:station:USF.COMPS:FHP:1,2014-05-29T16:30:00Z,28.1530,-82.8010,60.85,1111122 
COMPS,ioos:station:USF.COMPS:FHP:1,2014-05-29T16:36:00Z,28.1530,-82.8010,60.59,1111122 
COMPS,ioos:station:USF.COMPS:FHP:1,2014-05-29T16:42:00Z,28.1530,-82.8010,61.21,1111122 
COMPS,ioos:station:USF.COMPS:FHP:1,2014-05-29T16:48:00Z,28.1530,-82.8010,61.82,1111122 
COMPS,ioos:station:USF.COMPS:FHP:1,2014-05-29T16:54:00Z,28.1530,-82.8010,61.56,1111122 
COMPS,ioos:station:USF.COMPS:FHP:1,2014-05-29T17:00:00Z,28.1530,-82.8010,61.28,1111122 
COMPS,ioos:station:USF.COMPS:FHP:1,2014-05-29T17:06:00Z,28.1530,-82.8010,61.9,1111122 
COMPS,ioos:station:USF.COMPS:FHP:1,2014-05-29T17:12:00Z,28.1530,-82.8010,64.31,1111122 
COMPS,ioos:station:USF.COMPS:FHP:1,2014-05-29T17:18:00Z,28.1530,-82.8010,71.98,1111122 
COMPS,ioos:station:USF.COMPS:FHP:1,2014-05-29T17:24:00Z,28.1530,-82.8010,75.02,1111122 
COMPS,ioos:station:USF.COMPS:FHP:1,2014-05-29T17:30:00Z,28.1530,-82.8010,76.72,1111122 
COMPS,ioos:station:USF.COMPS:FHP:1,2014-05-29T17:36:00Z,28.1530,-82.8010,77.09,1111122 
COMPS,ioos:station:USF.COMPS:FHP:1,2014-05-29T17:42:00Z,28.1530,-82.8010,76.68,1111122 
COMPS,ioos:station:USF.COMPS:FHP:1,2014-05-29T17:48:00Z,28.1530,-82.8010,76.61,1111122 
COMPS,ioos:station:USF.COMPS:FHP:1,2014-05-29T17:54:00Z,28.1530,-82.8010,75.82,1111122 
COMPS,ioos:station:USF.COMPS:FHP:1,2014-05-29T18:00:00Z,28.1530,-82.8010,76.3,1111122 
COMPS,ioos:station:USF.COMPS:FHP:1,2014-05-29T18:06:00Z,28.1530,-82.8010,75.87,1111122 